ERTA2 Weather Reports


time (UTC)temp
C
wind
direction
speed
KPH
gust
KPH
rain 1hr
cm
rain 24hr
cm
rain mn
cm
humidity
%
barometer
mb
20260507054618 3 146 1.6 6.4 0.00 0.03 0.03 93 1013.6
20260507053616 3 152 1.6 4.8 0.00 0.03 0.03 92 1013.7
20260507051616 4 155 1.6 8.0 0.03 0.03 0.03 91 1013.6
20260507050612 4 158 1.6 9.7 0.03 0.03 0.03 91 1013.5
20260507045607 4 113 0.0 12.9 0.03 0.03 0.03 91 1013.5
20260507044608 5 113 3.2 14.5 0.03 0.03 0.03 90 1013.6
20260507043606 5 180 3.2 11.3 0.03 0.03 0.03 90 1013.5
20260507042606 5 196 3.2 8.0 0.03 0.03 0.03 90 1013.5
20260507041604 6 197 3.2 11.3 0.00 0.00 0.00 89 1013.5
20260507040602 6 216 1.6 8.0 0.00 0.00 0.00 88 1013.2
20260507035602 6 216 3.2 9.7 0.00 0.00 0.00 87 1013.1
20260507034600 6 216 4.8 9.7 0.00 0.00 0.00 85 1013.0
20260507033600 6 212 3.2 8.0 0.00 0.00 0.00 84 1012.8
20260507031559 6 212 3.2 8.0 0.00 0.00 0.00 82 1012.7
20260507030558 6 212 1.6 6.4 0.00 0.00 0.00 82 1012.6
20260507025558 6 212 3.2 8.0 0.00 0.00 0.00 82 1012.6
20260507024551 6 212 4.8 8.0 0.00 0.00 0.00 82 1012.5
20260507023552 6 212 4.8 8.0 0.00 0.00 0.00 81 1012.5
20260507022553 7 211 3.2 9.7 0.00 0.00 0.00 81 1012.4
20260507021552 7 214 3.2 8.0 0.00 0.00 0.00 81 1012.4
20260507020552 7 214 3.2 6.4 0.00 0.00 0.00 80 1012.4
20260507014552 7 225 4.8 9.7 0.00 0.00 0.00 78 1012.4
20260507013553 7 207 3.2 9.7 0.00 0.00 0.00 77 1012.3
20260507012551 7 231 3.2 11.3 0.00 0.00 0.00 78 1012.3
20260507011552 7 238 4.8 12.9 0.00 0.00 0.00 76 1012.3
20260507010552 7 240 6.4 12.9 0.00 0.00 0.00 75 1012.2
20260507005552 8 201 4.8 12.9 0.00 0.00 0.00 75 1012.1
20260507003549 8 203 4.8 9.7 0.00 0.00 0.00 72 1012.0
20260507001551 8 213 4.8 14.5 0.00 0.00 0.00 71 1011.9
20260507000549 8 221 8.0 12.9 0.00 0.00 0.00 71 1011.8
20260506235548 8 0.0 0.0 0.00 0.00 0.00 71 1011.8
20260506234458 8 0.0 0.0 0.00 0.00 0.00 72 1011.7
20260506233454 8 0.0 0.0 0.00 0.00 0.00 71 1011.7
20260506232452 8 0.0 0.0 0.00 0.00 0.00 72 1011.7
20260506231431 8 0.0 0.0 0.00 0.00 0.00 71 1011.7
20260506230354 8 0.0 0.0 0.00 0.00 0.00 72 1011.7
20260506225351 8 0.0 0.0 0.00 0.00 0.00 71 1011.6
20260506224327 8 232 8.0 14.5 0.00 0.00 0.00 71 1011.5
20260506223254 8 232 8.0 14.5 0.00 0.00 0.00 71 1011.5
20260506222252 8 238 8.0 16.1 0.00 0.00 0.00 70 1011.3
20260506221252 8 224 6.4 16.1 0.00 0.00 0.00 70 1011.3
20260506214250 8 202 8.0 12.9 0.00 0.00 0.00 72 1011.2
20260506213250 8 220 6.4 14.5 0.00 0.00 0.00 71 1011.2
20260506212250 8 263 4.8 12.9 0.00 0.00 0.00 68 1011.0
20260506211250 8 181 4.8 14.5 0.00 0.00 0.00 70 1010.9
20260506210249 8 232 6.4 14.5 0.00 0.00 0.00 69 1010.9
20260506205250 8 224 8.0 16.1 0.00 0.00 0.00 69 1010.8
20260506204251 8 218 8.0 16.1 0.00 0.00 0.00 71 1010.7
20260506203249 8 235 8.0 14.5 0.00 0.00 0.00 71 1010.6
20260506202250 8 203 6.4 17.7 0.00 0.00 0.00 73 1010.5
20260506201251 8 290 8.0 17.7 0.00 0.00 0.00 72 1010.4
20260506200250 8 231 8.0 14.5 0.00 0.00 0.00 75 1010.3
20260506195250 8 207 6.4 14.5 0.00 0.00 0.00 76 1010.3
20260506194250 7 213 4.8 12.9 0.00 0.00 0.00 74 1010.3
20260506193249 7 213 6.4 12.9 0.00 0.00 0.00 75 1010.2
20260506192250 7 230 4.8 11.3 0.00 0.00 0.00 76 1010.1
20260506191250 7 225 4.8 11.3 0.00 0.00 0.00 75 1010.2
20260506190250 7 234 4.8 11.3 0.00 0.00 0.00 77 1010.1
20260506185250 7 237 4.8 11.3 0.00 0.00 0.00 78 1010.1
20260506184251 6 240 6.4 12.9 0.00 0.00 0.00 78 1010.0
20260506183250 6 220 8.0 14.5 0.00 0.00 0.00 80 1010.0
20260506182250 6 238 6.4 14.5 0.00 0.00 0.00 81 1010.0
20260506181250 6 223 6.4 14.5 0.00 0.00 0.00 82 1009.9
20260506180250 6 292 8.0 14.5 0.00 0.00 0.00 81 1009.8
20260506174250 6 248 4.8 12.9 0.00 0.00 0.00 81 1009.7
20260506173249 5 288 6.4 12.9 0.00 0.00 0.00 80 1009.7
20260506172250 5 244 6.4 11.3 0.00 0.00 0.00 80 1009.6
20260506171250 5 273 3.2 9.7 0.00 0.00 0.00 80 1009.6
20260506170250 5 266 3.2 8.0 0.00 0.00 0.00 80 1009.7
20260506165250 5 265 3.2 8.0 0.00 0.00 0.00 82 1009.5
20260506164247 5 265 1.6 8.0 0.00 0.00 0.00 81 1009.4
20260506163247 5 266 0.0 0.0 0.00 0.00 0.00 81 1009.3
20260506162246 5 266 0.0 0.0 0.00 0.00 0.00 82 1009.3
20260506160246 4 266 0.0 0.0 0.00 0.00 0.00 84 1009.2
20260506155246 3 266 0.0 0.0 0.00 0.00 0.00 85 1009.2
20260506154246 3 266 0.0 0.0 0.00 0.00 0.00 87 1009.2
20260506153244 3 266 0.0 0.0 0.00 0.00 0.00 88 1009.2
20260506152243 3 266 0.0 0.0 0.00 0.00 0.00 88 1009.1
20260506151244 2 266 0.0 0.0 0.00 0.00 0.00 88 1009.1
20260506150238 2 266 0.0 0.0 0.00 0.00 0.00 88 1009.0
20260506145237 2 266 0.0 0.0 0.00 0.00 0.00 87 1009.0
20260506144239 2 266 0.0 1.6 0.00 0.00 0.00 86 1009.0
20260506143238 2 266 0.0 1.6 0.00 0.00 0.00 85 1009.0
20260506142238 2 266 0.0 1.6 0.00 0.00 0.00 85 1009.0
20260506141236 2 266 0.0 3.2 0.00 0.00 0.00 85 1009.0
20260506140236 2 266 0.0 0.0 0.00 0.00 0.00 84 1009.0
20260506135236 2 266 0.0 0.0 0.00 0.00 0.00 82 1009.1
20260506134235 3 266 0.0 0.0 0.00 0.00 0.00 81 1009.0
20260506133236 3 266 0.0 3.2 0.00 0.00 0.00 80 1009.0
20260506132235 3 266 0.0 8.0 0.00 0.00 0.00 79 1009.0
20260506131237 3 266 3.2 8.0 0.00 0.00 0.00 79 1008.8
20260506130236 3 266 3.2 8.0 0.00 0.00 0.00 78 1008.8
20260506124235 3 259 4.8 11.3 0.00 0.00 0.00 77 1008.7
20260506123236 3 244 4.8 11.3 0.00 0.00 0.00 77 1008.7
20260506122236 4 244 6.4 11.3 0.00 0.00 0.00 77 1008.6
20260506121234 4 250 4.8 9.7 0.00 0.00 0.00 76 1008.5
20260506115229 4 349 1.6 4.8 0.00 0.00 0.00 74 1008.4
20260506113230 4 350 1.6 6.4 0.00 0.00 0.00 73 1008.5
20260506112230 4 350 4.8 8.0 0.00 0.00 0.00 73 1008.4
20260506111231 4 17 1.6 6.4 0.00 0.00 0.00 72 1008.4
20260506110230 4 18 1.6 6.4 0.00 0.00 0.00 72 1008.4
20260506104228 4 49 1.6 6.4 0.00 0.00 0.00 71 1008.2
20260506103228 4 49 3.2 8.0 0.00 0.00 0.00 71 1008.2
20260506102227 4 49 1.6 6.4 0.00 0.00 0.00 72 1008.1
20260506101228 4 49 0.0 4.8 0.00 0.00 0.00 73 1007.9
20260506100225 3 49 1.6 4.8 0.00 0.00 0.00 73 1007.8
20260506095225 3 49 0.0 9.7 0.00 0.00 0.00 75 1007.8
20260506094226 3 49 1.6 9.7 0.00 0.00 0.00 75 1007.6
20260506093226 3 55 1.6 4.8 0.00 0.00 0.00 75 1007.5
20260506092225 3 55 0.0 4.8 0.00 0.00 0.00 75 1007.5
20260506091222 3 55 1.6 4.8 0.00 0.00 0.00 73 1007.4
20260506090223 4 55 3.2 6.4 0.00 0.00 0.00 73 1007.3
20260506084219 4 55 1.6 4.8 0.00 0.00 0.00 71 1007.3
20260506083218 4 55 1.6 6.4 0.00 0.00 0.00 70 1007.1
20260506082218 5 55 1.6 6.4 0.00 0.00 0.00 69 1007.0
20260506081216 5 56 0.0 6.4 0.00 0.00 0.00 68 1006.9
20260506080214 5 57 1.6 12.9 0.00 0.00 0.00 66 1006.9
20260506073212 6 54 4.8 16.1 0.00 0.00 0.00 65 1006.7
20260506072212 6 28 4.8 14.5 0.00 0.00 0.00 66 1006.7
20260506061208 6 66 8.0 17.7 0.00 0.00 0.00 64 1005.9
20260506060202 6 52 6.4 17.7 0.00 0.00 0.00 63 1005.8